Find Starlink 31047

NORAD ID: 58783 Int'l Des: 2024-011 Owner: SPXS Country: US Constellation: starlink operational
LEOCIRCULAR

实时位置

正在加载3D地球...

关于 Starlink 31047

正在加载描述...

即将过境

Passes for default location (London). Set your location on the main map for personalized predictions.

高度历史

Loading altitude history...

两行轨道根数

1 58783U 24011U 26123.23353505 .00001172 00000-0 51705-4 0 9992
2 58783 53.1607 104.7740 0001109 78.8483 281.2643 15.30198384128837
Epoch: May 3, 2026 • Age: 12 hours

当前状态

高度 478.9 km
速度 7.63 km/s
星下点 43.13°N, 120.09°E
发射日期 Jan 14, 2024
运行时间 2.2 years
类型 internet

技术详情

分类 Payload
质量 730.00 kg
干质量 700.00 kg
总质量 730.00 kg
长度 0.30 m
直径 4.10 m
跨度 29.00 m
形状 Box + pan
制造商 SPXS
平台类型 Starlink V2M
阶段状态 In Orbit
所有者/国家 SPXS/US

Most Searched